Location: Skalnate Pleso
(49.1889°N, 20.2450°E)
Time: 17:35:23
(UTC+02:00)

Cosmos 1605 Rocket - Pass Details

Date: 28 February 2020
Orbit: 944 x 1007 km, 82.9° (Epoch: 31 March)

Event Time Altitude Azimuth Distance (km) Brightness Sun altitude
Rises 18:03:23 0° 249° (WSW) 3,719 8.7 -7.9°
Reaches altitude 10° 18:07:26 10° 274° (W) 2,764 8.1 -8.6°
Maximum altitude 18:10:33 14° 304° (NW) 2,481 7.0 -9.1°
Drops below altitude 10° 18:13:40 10° 334° (NNW) 2,752 6.7 -9.6°
Sets 18:17:43 0° 359° (N) 3,690 7.0 -10.3°
